Date String (YYYY-MM-DD hh:mm:ss) UTC,Instrument flags,Ambient pressure (hPa),Sample flow (lpm),Bypass flow (lpm),Sample temperature (°C),Ambient temperature (°C),ASC tube jacket temperature (°C),LED temperature (°C),Box temperature (°C),Sample RH (%),Span deviation,Mass concentration (μg/m³),Mass concentration (μg/m³),Mass concentration (μg/m³)
DateTimeUTC,F1_M11,P_M11,Q1_M11,Q2_M11,T1_M11,T2_M11,T3_M11,T4_M11,T5_M11,U1_M11,ZSPAN_M11,X0_M11,X2_M11,X1_M11
2022-01-14 03:00:00,,0824.1,5.00,0.00,27.5,26.8,00.0,36.7,29.2,10.4,0005.9,0016.88,0009.49,0008.67
2022-01-14 03:01:00,,0824.0,5.01,0.00,27.5,26.7,00.0,36.7,29.2,10.5,0005.7,0015.84,0009.34,0008.56
2022-01-14 03:02:00,,0823.9,4.99,0.00,27.4,26.7,00.0,36.7,29.1,10.3,0005.4,0015.95,0009.23,0008.45
2022-01-14 03:03:00,,0823.9,5.01,0.00,27.4,26.7,00.0,36.6,29.1,10.2,0005.3,0016.69,0009.12,0008.31
2022-01-14 03:04:00,,0823.9,4.99,0.00,27.4,26.6,00.0,36.6,29.0,10.4,0005.2,0016.95,0009.06,0008.26
2022-01-14 03:05:00,,0823.9,5.01,0.00,27.3,26.6,00.0,36.6,29.0,10.5,0005.0,0017.38,0009.03,0008.24
2022-01-14 03:06:00,,0823.9,4.99,0.00,27.3,26.5,00.0,36.6,29.0,10.6,0005.4,0017.63,0009.00,0008.21
2022-01-14 03:07:00,,0823.9,5.01,0.00,27.3,26.5,00.0,36.6,29.0,10.6,0005.9,0017.49,0009.01,0008.24
2022-01-14 03:08:00,,0823.9,4.99,0.00,27.3,26.5,00.0,36.5,29.0,10.6,0005.3,0018.06,0009.10,0008.28
2022-01-14 03:09:00,,0823.9,4.99,0.00,27.3,26.5,00.0,36.5,29.0,10.7,0004.7,0018.32,0009.17,0008.38
2022-01-14 03:10:00,,0823.8,5.00,0.00,27.3,26.6,00.0,36.5,29.1,10.7,0004.8,0017.51,0009.31,0008.50
2022-01-14 03:11:00,,0823.9,5.00,0.00,27.3,26.6,00.0,36.5,29.1,10.8,0005.0,0016.70,0009.39,0008.58
2022-01-14 03:12:00,,0823.9,4.99,0.00,27.3,26.6,00.0,36.5,29.1,10.8,0005.2,0017.28,0009.44,0008.60
2022-01-14 03:13:00,,0823.9,5.00,0.00,27.3,26.6,00.0,36.5,29.1,10.8,0001.1,0017.45,0009.47,0008.63
2022-01-14 03:14:00,,0823.9,5.00,0.00,27.3,26.6,00.0,36.5,29.1,10.9,0003.7,0017.07,0009.53,0008.72
2022-01-14 03:15:00,,0824.0,5.01,0.00,27.4,26.7,00.0,36.5,29.2,11.0,0003.5,0016.51,0009.55,0008.76
2022-01-14 03:16:00,,0823.9,5.00,0.00,27.4,26.7,00.0,36.5,29.2,10.8,0002.6,0016.37,0009.57,0008.75
2022-01-14 03:17:00,,0823.9,5.00,0.00,27.4,26.8,00.0,36.5,29.2,10.8,0001.9,0016.95,0009.56,0008.75
2022-01-14 03:18:00,,0823.8,5.01,0.00,27.4,26.8,00.0,36.5,29.3,10.7,0001.3,0017.07,0009.58,0008.79
2022-01-14 03:19:00,,0823.8,4.99,0.00,27.4,26.8,00.0,36.5,29.3,10.4,0000.4,0017.13,0009.77,0008.93
2022-01-14 03:20:00,,0823.8,5.01,0.00,27.5,26.8,00.0,36.5,29.3,10.3,0001.0,0017.17,0010.01,0009.15
2022-01-14 03:21:00,,0823.7,5.01,0.00,27.5,26.9,00.0,36.5,29.3,10.4,0001.9,0017.37,0010.19,0009.32
2022-01-14 03:22:00,,0823.7,4.99,0.00,27.5,26.9,00.0,36.5,29.3,10.2,0001.9,0018.37,0010.31,0009.45
2022-01-14 03:23:00,,0823.7,4.99,0.00,27.5,26.9,00.0,36.5,29.4,10.2,0002.1,0018.57,0010.46,0009.58
2022-01-14 03:24:00,,0823.8,5.01,0.00,27.5,26.9,00.0,36.5,29.4,10.2,0002.8,0018.56,0010.52,0009.65
2022-01-14 03:25:00,,0823.8,4.99,0.00,27.6,27.0,00.0,36.5,29.4,10.4,0002.6,0018.86,0010.60,0009.70
2022-01-14 03:26:00,,0823.7,5.01,0.00,27.6,27.0,00.0,36.5,29.4,10.7,0002.5,0018.73,0010.65,0009.73
2022-01-14 03:27:00,,0823.7,4.99,0.00,27.6,27.0,00.0,36.5,29.4,10.5,0003.3,0019.51,0010.74,0009.79
2022-01-14 03:28:00,,0823.7,5.01,0.00,27.6,27.0,00.0,36.5,29.4,10.2,0003.4,0019.04,0010.88,0009.92
2022-01-14 03:29:00,,0823.7,5.00,0.00,27.6,27.0,00.0,36.6,29.4,10.1,0003.4,0019.60,0011.02,0010.01
2022-01-14 03:30:00,,0823.7,5.01,0.00,27.6,27.0,00.0,36.6,29.4,10.0,0004.2,0019.03,0010.95,0009.97
2022-01-14 03:31:00,,0823.7,5.00,0.00,27.6,27.0,00.0,36.6,29.4,10.0,0004.6,0019.37,0010.88,0009.88
2022-01-14 03:32:00,,0823.7,5.01,0.00,27.6,27.0,00.0,36.6,29.4,09.9,0005.5,0019.07,0010.86,0009.88
2022-01-14 03:33:00,,0823.7,4.98,0.00,27.6,27.0,00.0,36.6,29.4,10.0,0006.2,0019.10,0010.89,0009.94
2022-01-14 03:34:00,,0823.7,5.01,0.00,27.6,27.0,00.0,36.6,29.4,10.0,0006.9,0019.01,0010.94,0010.01
2022-01-14 03:35:00,,0823.7,4.99,0.00,27.6,27.0,00.0,36.6,29.4,10.0,0006.8,0018.78,0011.08,0010.11
2022-01-14 03:36:00,,0823.7,5.01,0.00,27.6,27.0,00.0,36.6,29.5,10.0,0006.7,0018.48,0011.16,0010.22
2022-01-14 03:37:00,,0823.7,4.99,0.00,27.6,27.0,00.0,36.6,29.5,09.9,0006.8,0018.45,0011.29,0010.36
2022-01-14 03:38:00,,0823.7,5.02,0.00,27.6,27.0,00.0,36.6,29.4,09.9,0006.7,0017.76,0011.37,0010.50
2022-01-14 03:39:00,,0823.7,4.99,0.00,27.6,27.0,00.0,36.6,29.4,10.0,0006.5,0017.34,0011.41,0010.57
2022-01-14 03:40:00,,0823.6,5.01,0.00,27.6,27.0,00.0,36.6,29.4,10.0,0006.4,0017.28,0011.41,0010.58
2022-01-14 03:41:00,,0823.6,5.01,0.00,27.6,26.9,00.0,36.6,29.4,10.0,0006.4,0018.02,0011.37,0010.60
2022-01-14 03:42:00,,0823.6,4.99,0.00,27.6,26.9,00.0,36.6,29.4,10.0,0006.3,0018.65,0011.35,0010.62
2022-01-14 03:43:00,,0823.6,5.01,0.00,27.6,26.9,00.0,36.6,29.4,10.0,0005.5,0018.97,0011.39,0010.64
2022-01-14 03:44:00,,0823.5,5.00,0.00,27.6,26.9,00.0,36.6,29.4,10.0,0004.4,0018.11,0011.47,0010.68
2022-01-14 03:45:00,,0823.4,4.99,0.00,27.6,26.9,00.0,36.6,29.3,10.1,0003.7,0017.82,0011.52,0010.75
2022-01-14 03:46:00,,0823.3,5.01,0.00,27.6,26.9,00.0,36.6,29.3,10.1,0003.3,0017.88,0011.55,0010.82
2022-01-14 03:47:00,,0823.3,4.99,0.00,27.6,26.9,00.0,36.6,29.4,10.1,0003.2,0018.14,0011.60,0010.91
2022-01-14 03:48:00,,0823.4,5.01,0.00,27.6,26.9,00.0,36.6,29.4,10.1,0002.9,0018.31,0011.65,0010.95
2022-01-14 03:49:00,,0823.5,4.99,0.00,27.6,26.9,00.0,36.6,29.4,10.1,0002.7,0018.34,0011.72,0010.97
2022-01-14 03:50:00,,0823.6,5.01,0.00,27.6,26.9,00.0,36.6,29.4,10.1,0002.5,0018.59,0011.78,0011.01
2022-01-14 03:51:00,,0823.6,5.02,0.00,27.6,26.9,00.0,36.6,29.4,10.1,0002.8,0018.28,0011.87,0011.08
2022-01-14 03:52:00,,0823.6,4.99,0.00,27.6,26.9,00.0,36.6,29.4,10.1,0003.0,0017.64,0011.97,0011.14
2022-01-14 03:53:00,,0823.7,5.02,0.00,27.5,26.8,00.0,36.6,29.3,10.2,0003.5,0016.64,0012.07,0011.22
2022-01-14 03:54:00,,0823.6,4.99,0.00,27.5,26.8,00.0,36.6,29.2,10.2,0004.1,0016.40,0012.13,0011.28
2022-01-14 03:55:00,,0823.4,5.02,0.00,27.5,26.7,00.0,36.6,29.1,10.3,0004.7,0016.50,0012.14,0011.32
2022-01-14 03:56:00,,0823.4,4.98,0.00,27.4,26.7,00.0,36.5,29.1,10.3,0005.0,0016.80,0012.16,0011.37
2022-01-14 03:57:00,,0823.6,5.01,0.00,27.4,26.7,00.0,36.5,29.1,10.4,0003.0,0017.35,0012.23,0011.43
2022-01-14 03:58:00,,0823.7,4.99,0.00,27.4,26.6,00.0,36.5,29.1,10.4,0003.2,0017.51,0012.31,0011.48
2022-01-14 03:59:00,,0823.6,5.01,0.00,27.4,26.6,00.0,36.5,29.1,10.4,0005.2,0017.43,0012.38,0011.56
